This is the latest recevied weather packets stored in our database for station/object DM2KB-13. If no packets are shown the sender has not sent any weather packets the latest 10 day(s).
| Time | Temp. | Humidity | Pressure | Rain* | Wind** | Luminosity | Snow |
|---|---|---|---|---|---|---|---|
| 1778145456 | 12.78° C | 79% | 1014.2 hPa | 0 mm | - | 343 W/m² | - |
| 1778145156 | 12.22° C | 84% | 1014.1 hPa | 0 mm | - | 350 W/m² | - |
| 1778144856 | 12.22° C | 83% | 1014.2 hPa | 0 mm | - | 891 W/m² | - |
| 1778144556 | 12.22° C | 81% | 1014.1 hPa | 0 mm | - | 229 W/m² | - |
| 1778144255 | 12.22° C | 81% | 1014.1 hPa | 0 mm | - | 155 W/m² | - |
| 1778143955 | 12.22° C | 81% | 1014.1 hPa | 0 mm | - | 120 W/m² | - |
| 1778143655 | 12.22° C | 80% | 1014.1 hPa | 0 mm | - | 178 W/m² | - |
| 1778143354 | 12.22° C | 83% | 1014 hPa | 0 mm | - | 148 W/m² | - |
| 1778143054 | 11.67° C | 86% | 1014 hPa | 0 mm | - | 677 W/m² | - |
| 1778142754 | 11.67° C | 88% | 1014 hPa | 0 mm | - | 684 W/m² | - |
| 1778142454 | 11.67° C | 88% | 1013.9 hPa | 0 mm | - | 555 W/m² | - |
| 1778142153 | 11.11° C | 90% | 1014 hPa | 0 mm | - | 104 W/m² | - |
| 1778141853 | 11.11° C | 92% | 1013.9 hPa | 0 mm | - | 132 W/m² | - |
| 1778141553 | 10.56° C | 92% | 1013.8 hPa | 0 mm | - | 605 W/m² | - |
| 1778141253 | 10.56° C | 94% | 1013.8 hPa | 0 mm | - | 599 W/m² | - |
| 1778140952 | 10.56° C | 96% | 1013.8 hPa | 0 mm | - | 589 W/m² | - |
| 1778140652 | 10° C | 96% | 1013.8 hPa | 0 mm | - | 506 W/m² | - |
| 1778140352 | 9.44° C | 97% | 1013.7 hPa | 0 mm | - | 494 W/m² | - |
| 1778140051 | 9.44° C | 97% | 1013.7 hPa | 0 mm | - | 475 W/m² | - |
| 1778139751 | 8.89° C | 97% | 1013.6 hPa | 0 mm | - | 118 W/m² | - |
| 1778139451 | 8.89° C | 97% | 1013.6 hPa | 0 mm | - | 60 W/m² | - |
| 1778139150 | 8.89° C | 97% | 1013.6 hPa | 0 mm | - | 56 W/m² | - |
| 1778138850 | 8.33° C | 97% | 1013.5 hPa | 0 mm | - | 76 W/m² | - |
| 1778138550 | 8.33° C | 97% | 1013.5 hPa | 0 mm | - | 56 W/m² | - |
| 1778138250 | 8.33° C | 97% | 1013.6 hPa | 0 mm | - | 54 W/m² | - |
* Rain latest hour (hover to see other rain measurements)
** Current wind speed in m/s (hover to see current wind gust speed)